TimeCDT,TemperatureF,Dew PointF,Humidity,Sea Level PressureIn,VisibilityMPH,Wind Direction,Wind SpeedMPH,Gust SpeedMPH,PrecipitationIn,Events,Conditions,WindDirDegrees,DateUTC
12:54 AM,30.9,24.1,76,30.24,10.0,Calm,Calm,-,N/A,,Clear,0,2013-04-26 05:54:00
1:54 AM,30.9,24.1,76,30.23,10.0,South,3.5,-,N/A,,Clear,170,2013-04-26 06:54:00
2:54 AM,32.0,25.0,75,30.22,10.0,Calm,Calm,-,N/A,,Clear,0,2013-04-26 07:54:00
3:54 AM,30.0,25.0,82,30.23,10.0,Calm,Calm,-,N/A,,Clear,0,2013-04-26 08:54:00
4:54 AM,30.9,26.1,82,30.23,10.0,Calm,Calm,-,N/A,,Overcast,0,2013-04-26 09:54:00
5:54 AM,33.1,26.1,75,30.21,10.0,SE,4.6,-,N/A,,Overcast,140,2013-04-26 10:54:00
6:54 AM,35.1,27.0,72,30.21,10.0,SE,4.6,-,N/A,,Overcast,140,2013-04-26 11:54:00
7:54 AM,35.1,30.9,85,30.21,7.0,SE,4.6,-,0.01,Rain,Light Rain,140,2013-04-26 12:54:00
8:54 AM,37.0,33.1,86,30.20,10.0,SE,5.8,-,0.00,,Overcast,130,2013-04-26 13:54:00
9:54 AM,37.9,33.1,83,30.17,10.0,SE,9.2,-,0.00,Rain,Light Rain,140,2013-04-26 14:54:00
10:54 AM,43.0,36.0,76,30.16,10.0,SSE,10.4,-,0.00,,Overcast,150,2013-04-26 15:54:00
11:54 AM,52.0,36.0,54,30.14,10.0,South,16.1,20.7,N/A,,Mostly Cloudy,170,2013-04-26 16:54:00
12:54 PM,57.9,35.1,42,30.12,10.0,SSW,12.7,23.0,N/A,,Partly Cloudy,200,2013-04-26 17:54:00
1:54 PM,61.0,34.0,36,30.09,10.0,SSW,13.8,21.9,N/A,,Clear,200,2013-04-26 18:54:00
2:54 PM,62.1,34.0,35,30.08,10.0,SSW,17.3,23.0,N/A,,Clear,210,2013-04-26 19:54:00
3:54 PM,64.9,35.1,33,30.07,10.0,SW,10.4,24.2,N/A,,Clear,220,2013-04-26 20:54:00
4:54 PM,66.0,36.0,33,30.06,10.0,SW,11.5,-,N/A,,Clear,220,2013-04-26 21:54:00
5:54 PM,66.0,36.0,33,30.06,10.0,WSW,6.9,-,N/A,,Clear,240,2013-04-26 22:54:00
6:54 PM,64.9,37.0,36,30.08,10.0,Calm,Calm,-,N/A,,Overcast,0,2013-04-26 23:54:00
7:54 PM,57.9,39.9,51,30.10,10.0,SE,6.9,-,N/A,,Overcast,130,2013-04-27 00:54:00
8:54 PM,53.1,39.0,59,30.13,10.0,East,4.6,-,N/A,,Clear,100,2013-04-27 01:54:00
9:54 PM,46.0,36.0,68,30.14,10.0,Calm,Calm,-,N/A,,Clear,0,2013-04-27 02:54:00
10:54 PM,41.0,36.0,82,30.15,10.0,Calm,Calm,-,N/A,,Clear,0,2013-04-27 03:54:00
11:54 PM,39.0,35.1,86,30.16,10.0,Calm,Calm,-,N/A,,Scattered Clouds,0,2013-04-27 04:54:00